User: anonymous   Login
Location: Ariel
(45.9570°N, 122.5700°W)
Time: 01:58:50
(UTC-07:00)
Language:

Tiros 1 - Orbit

View from above orbital plane
View from above orbital plane
View from above satellite
View from above satellite

Ground track
Ground track

The orbit data is extracted from the following two-line orbital elements,

1    29U 60002B   19229.21902911 -.00000138  00000-0  10522-4 0  9994
2    29  48.3803 309.0693 0023898   5.3514 354.7649 14.74313677173627
Epoch (UTC): 17 August 2019 05:15:24
Eccentricity: 0.0023898
inclination: 48.3803°
perigee height: 630 km
apogee height: 664 km
right ascension of ascending node: 309.0693°
argument of perigee: 5.3514°
revolutions per day: 14.74313677
mean anomaly at epoch: 354.7649°
orbit number at epoch: 17362

The dashed part of the orbit path shows where the satellite is in the earth's shadow,  

DLR